Location: Unnamed
(48.6007°N, 2.4808°E)
Time: 16:51:06
(UTC+01:00)

METEOR M2 - Visible Passes

Search period start: 04 March 2024 00:00
Search period end: 14 March 2024 00:00
Orbit: 819 x 826 km, 98.4° (Epoch: 04 March)

Date Brightness Start Highest point End Pass type
(mag) Time Alt. Az. Time Alt. Az. Time Alt. Az.
04 Mar ? 05:53:13 10° NNE 05:58:08 34° E 06:03:01 10° SSE visible
05 Mar ? 05:33:29 10° NE 05:37:49 24° E 05:42:07 10° SE visible
06 Mar ? 05:14:03 10° NE 05:17:26 17° E 05:20:48 10° SE visible
07 Mar ? 04:55:33 10° ENE 04:56:59 11° E 04:58:25 10° E visible
07 Mar ? 06:32:41 10° NNE 06:38:06 72° ESE 06:43:29 10° S visible
08 Mar ? 06:12:39 10° NNE 06:17:54 50° E 06:23:07 10° S visible
08 Mar ? 19:23:35 10° WSW 19:25:22 12° W 19:27:09 10° WNW visible
09 Mar ? 05:52:44 10° NNE 05:57:39 34° E 06:02:31 10° SSE visible
10 Mar ? 05:32:59 10° NE 05:37:20 24° E 05:41:38 10° SE visible
11 Mar ? 05:13:33 10° NE 05:16:57 17° E 05:20:19 10° SE visible
12 Mar ? 04:55:02 10° ENE 04:56:30 11° E 04:57:57 10° E visible
12 Mar ? 06:32:11 10° NNE 06:37:37 72° ESE 06:42:59 10° S visible
13 Mar ? 06:12:09 10° NNE 06:17:25 50° E 06:22:37 10° S visible
13 Mar ? 19:23:05 10° WSW 19:24:52 12° W 19:26:39 10° WNW visible
